Time,TemperatureF,DewpointF,PressureIn,WindDirection,WindDirectionDegrees,WindSpeedMPH,WindSpeedGustMPH,Humidity,HourlyPrecipIn,Conditions,Clouds,dailyrainin,SoftwareType,DateUTC
2013-01-19 01:10:00,37.0,-99.9,-100.00,NW,320,7.0,7.0,-999,-99.99,,,-99.99,,2013-01-19 09:10:00,
2013-01-19 01:40:00,43.0,-99.9,-100.00,NW,324,4.0,6.0,-999,-99.99,,,-99.99,,2013-01-19 09:40:00,
2013-01-19 01:53:00,37.0,-99.9,-100.00,NW,320,7.0,7.0,-999,-99.99,,,-99.99,,2013-01-19 09:53:00,
2013-01-19 02:03:00,37.0,-99.9,-100.00,NW,320,7.0,7.0,-999,-99.99,,,-99.99,,2013-01-19 10:03:00,
2013-01-19 02:23:00,43.0,-99.9,-100.00,NW,324,4.0,6.0,-999,-99.99,,,-99.99,,2013-01-19 10:23:00,
2013-01-19 02:33:00,43.0,-99.9,-100.00,NW,324,4.0,6.0,-999,-99.99,,,-99.99,,2013-01-19 10:33:00,
2013-01-19 03:03:00,34.0,-99.9,-100.00,NW,318,2.0,3.0,-999,-99.99,,,-99.99,,2013-01-19 11:03:00,
2013-01-19 03:13:00,34.0,-99.9,-100.00,NW,318,2.0,3.0,-999,-99.99,,,-99.99,,2013-01-19 11:13:00,
2013-01-19 05:40:00,35.0,-99.9,-100.00,West,270,6.0,9.0,-999,-99.99,,,-99.99,,2013-01-19 13:40:00,
2013-01-19 06:23:00,35.0,-99.9,-100.00,West,270,6.0,9.0,-999,-99.99,,,-99.99,,2013-01-19 14:23:00,
2013-01-19 06:34:00,35.0,-99.9,-100.00,West,270,6.0,9.0,-999,-99.99,,,-99.99,,2013-01-19 14:34:00,
2013-01-19 07:34:00,33.0,-99.9,-100.00,West,263,8.0,8.0,-999,-99.99,,,-99.99,,2013-01-19 15:34:00,
2013-01-19 07:43:00,33.0,-99.9,-100.00,West,263,8.0,8.0,-999,-99.99,,,-99.99,,2013-01-19 15:43:00,
2013-01-19 09:03:00,49.0,-99.9,-100.00,North,351,4.0,5.0,-999,-99.99,,,-99.99,,2013-01-19 17:03:00,
2013-01-19 09:35:00,52.0,-99.9,-100.00,NNE,32,6.0,8.0,-999,-99.99,,,-99.99,,2013-01-19 17:35:00,
2013-01-19 09:39:00,51.0,-99.9,-100.00,NNE,25,5.0,6.0,-999,-99.99,,,-99.99,,2013-01-19 17:39:00,
2013-01-19 10:10:00,54.0,-99.9,-100.00,ENE,61,6.0,7.0,-999,-99.99,,,-99.99,,2013-01-19 18:10:00,
2013-01-19 11:00:00,55.0,-99.9,-100.00,ENE,66,8.0,11.0,-999,-99.99,,,-99.99,,2013-01-19 19:00:00,
2013-01-19 11:04:00,54.0,-99.9,-100.00,ENE,61,6.0,7.0,-999,-99.99,,,-99.99,,2013-01-19 19:04:00,
2013-01-19 11:59:00,55.0,-99.9,-100.00,ENE,66,8.0,11.0,-999,-99.99,,,-99.99,,2013-01-19 19:59:00,
2013-01-19 12:15:00,58.0,-99.9,-100.00,NE,45,5.0,7.0,-999,-99.99,,,-99.99,,2013-01-19 20:15:00,
2013-01-19 13:00:00,58.0,-99.9,-100.00,NE,45,5.0,7.0,-999,-99.99,,,-99.99,,2013-01-19 21:00:00,
2013-01-19 13:10:00,60.0,-99.9,-100.00,NNE,20,6.0,12.0,-999,-99.99,,,-99.99,,2013-01-19 21:10:00,
2013-01-19 13:50:00,59.0,-99.9,-100.00,NNE,15,6.0,11.0,-999,-99.99,,,-99.99,,2013-01-19 21:50:00,
2013-01-19 14:25:00,59.0,-99.9,-100.00,North,7,5.0,9.0,-999,-99.99,,,-99.99,,2013-01-19 22:25:00,
2013-01-19 14:37:00,59.0,-99.9,-100.00,NNE,15,6.0,11.0,-999,-99.99,,,-99.99,,2013-01-19 22:37:00,
2013-01-19 14:49:00,59.0,-99.9,-100.00,NNE,15,6.0,11.0,-999,-99.99,,,-99.99,,2013-01-19 22:49:00,
2013-01-19 15:14:00,59.0,-99.9,-100.00,North,7,5.0,9.0,-999,-99.99,,,-99.99,,2013-01-19 23:14:00,
2013-01-19 16:00:00,59.0,-99.9,-100.00,NNE,25,3.0,8.0,-999,-99.99,,,-99.99,,2013-01-20 00:00:00,
2013-01-19 16:27:00,59.0,-99.9,-100.00,North,0,4.0,8.0,-999,-99.99,,,-99.99,,2013-01-20 00:27:00,
2013-01-19 16:39:00,59.0,-99.9,-100.00,NNE,25,3.0,8.0,-999,-99.99,,,-99.99,,2013-01-20 00:39:00,
2013-01-19 16:49:00,59.0,-99.9,-100.00,NNE,25,3.0,8.0,-999,-99.99,,,-99.99,,2013-01-20 00:49:00,
2013-01-19 16:59:00,59.0,-99.9,-100.00,NNE,25,3.0,8.0,-999,-99.99,,,-99.99,,2013-01-20 00:59:00,
2013-01-19 17:55:00,51.0,-99.9,-100.00,NW,306,8.0,8.0,-999,-99.99,,,-99.99,,2013-01-20 01:55:00,
2013-01-19 18:25:00,50.0,-99.9,-100.00,NW,307,8.0,8.0,-999,-99.99,,,-99.99,,2013-01-20 02:25:00,
2013-01-19 18:39:00,51.0,-99.9,-100.00,NW,306,8.0,8.0,-999,-99.99,,,-99.99,,2013-01-20 02:39:00,
2013-01-19 18:47:00,51.0,-99.9,-100.00,NW,306,8.0,8.0,-999,-99.99,,,-99.99,,2013-01-20 02:47:00,
2013-01-19 19:00:00,50.0,-99.9,-100.00,NW,314,8.0,9.0,-999,-99.99,,,-99.99,,2013-01-20 03:00:00,
2013-01-19 19:09:00,50.0,-99.9,-100.00,NW,307,8.0,8.0,-999,-99.99,,,-99.99,,2013-01-20 03:09:00,
2013-01-19 19:15:00,50.0,-99.9,-100.00,NW,307,8.0,8.0,-999,-99.99,,,-99.99,,2013-01-20 03:15:00,
2013-01-19 19:45:00,48.0,-99.9,-100.00,NW,312,8.0,8.0,-999,-99.99,,,-99.99,,2013-01-20 03:45:00,
2013-01-19 20:20:00,45.0,-99.9,-100.00,NW,305,7.0,9.0,-999,-99.99,,,-99.99,,2013-01-20 04:20:00,
2013-01-19 21:04:00,45.0,-99.9,-100.00,NW,305,7.0,9.0,-999,-99.99,,,-99.99,,2013-01-20 05:04:00,
2013-01-19 21:12:00,45.0,-99.9,-100.00,NW,305,7.0,9.0,-999,-99.99,,,-99.99,,2013-01-20 05:12:00,
2013-01-19 21:40:00,43.0,-99.9,-100.00,West,278,7.0,7.0,-999,-99.99,,,-99.99,,2013-01-20 05:40:00,
2013-01-19 22:22:00,43.0,-99.9,-100.00,West,278,7.0,7.0,-999,-99.99,,,-99.99,,2013-01-20 06:22:00,
2013-01-19 22:34:00,43.0,-99.9,-100.00,West,278,7.0,7.0,-999,-99.99,,,-99.99,,2013-01-20 06:34:00,
2013-01-19 23:20:00,37.0,-99.9,-100.00,West,264,8.0,11.0,-999,-99.99,,,-99.99,,2013-01-20 07:20:00,